Location: Unspecified
(0.0000°N, 0.0000°E)
Time: 23:41:57
(UTC+00:00)

A-11 Canister half - Pass Details

Date: 11 February 2023
Orbit: 1526 x 1682 km, 47.3° (Epoch: 29 March)

Event Time Altitude Azimuth Distance (km) Brightness Sun altitude
Rises 12:28:22 0° 319° (NW) 4,762 11.5 75.6°
Reaches altitude 10° 12:31:24 10° 319° (NW) 3,799 11.1 75.4°
Maximum altitude 12:41:09 86° 231° (SW) 1,641 11.5 74.5°
Drops below altitude 10° 12:51:14 10° 142° (SE) 3,922 11.4 73.3°
Sets 12:54:25 0° 141° (SE) 4,922 11.7 72.8°
